| time (UTC) | temp C | wind direction | speed KPH | gust KPH | rain 1hr cm | rain 24hr cm | rain mn cm | humidity % | barometer mb |
| 20260507104025 | 11 | 0.0 | 0.0 | 0.00 | 0.36 | 0.00 | 76 | 1016.9 | |
| 20260507103049 | 11 | 0.0 | 0.0 | 0.00 | 0.36 | 0.00 | 75 | 1017.0 | |
| 20260507102116 | 12 | 0.0 | 0.0 | 0.00 | 0.36 | 0.00 | 71 | 1016.9 | |
| 20260507101034 | 12 | 0.0 | 0.0 | 0.00 | 0.36 | 0.00 | 68 | 1016.7 | |
| 20260507100100 | 12 | 0.0 | 0.0 | 0.00 | 0.36 | 0.00 | 68 | 1016.7 | |
| 20260507095020 | 12 | 0.0 | 0.0 | 0.00 | 0.36 | 0.00 | 71 | 1016.6 | |
| 20260507094036 | 12 | 0.0 | 0.0 | 0.00 | 0.36 | 0.00 | 70 | 1016.5 | |
| 20260507093108 | 13 | 25 | 0.0 | 1.6 | 0.00 | 0.36 | 0.00 | 69 | 1016.3 |
| 20260507092025 | 12 | 0.0 | 0.0 | 0.00 | 0.36 | 0.00 | 69 | 1016.3 | |
| 20260507091048 | 13 | 0.0 | 0.0 | 0.00 | 0.36 | 0.00 | 70 | 1016.2 | |
| 20260507090116 | 13 | 0.0 | 0.0 | 0.00 | 0.36 | 0.00 | 70 | 1016.2 | |
| 20260507085034 | 13 | 0.0 | 0.0 | 0.00 | 0.36 | 0.00 | 67 | 1016.0 | |
| 20260507084100 | 13 | 0.0 | 0.0 | 0.00 | 0.36 | 0.00 | 68 | 1016.0 | |
| 20260507083019 | 13 | 0.0 | 0.0 | 0.00 | 0.36 | 0.00 | 67 | 1015.9 | |
| 20260507082036 | 13 | 0.0 | 0.0 | 0.00 | 0.36 | 0.00 | 68 | 1015.8 | |
| 20260507081108 | 15 | 0.0 | 0.0 | 0.00 | 0.36 | 0.00 | 65 | 1015.8 | |
| 20260507080025 | 13 | 0.0 | 0.0 | 0.00 | 0.36 | 0.00 | 67 | 1015.9 | |
| 20260507075048 | 13 | 0.0 | 0.0 | 0.00 | 0.36 | 0.00 | 68 | 1015.8 | |
| 20260507074115 | 13 | 0.0 | 0.0 | 0.00 | 0.36 | 0.00 | 69 | 1015.9 | |
| 20260507073034 | 13 | 40 | 0.0 | 1.6 | 0.00 | 0.36 | 0.00 | 67 | 1015.6 |
| 20260507072100 | 14 | 22 | 0.0 | 1.6 | 0.00 | 0.36 | 0.00 | 65 | 1015.6 |
| 20260507071020 | 13 | 22 | 0.0 | 1.6 | 0.00 | 0.36 | 0.00 | 67 | 1015.5 |
| 20260507070041 | 13 | 0.0 | 0.0 | 0.00 | 0.36 | 0.00 | 67 | 1015.5 | |
| 20260507065108 | 12 | 0.0 | 0.0 | 0.00 | 0.36 | 0.00 | 70 | 1015.4 | |
| 20260507064026 | 11 | 0.0 | 0.0 | 0.00 | 0.36 | 0.00 | 75 | 1015.4 | |
| 20260507063049 | 10 | 0.0 | 0.0 | 0.00 | 0.36 | 0.00 | 77 | 1015.3 | |
| 20260507062028 | 10 | 0.0 | 0.0 | 0.00 | 0.36 | 0.00 | 79 | 1015.2 | |
| 20260507061049 | 10 | 0.0 | 0.0 | 0.00 | 0.36 | 0.00 | 78 | 1015.1 | |
| 20260507060116 | 10 | 0.0 | 0.0 | 0.00 | 0.36 | 0.00 | 78 | 1015.0 | |
| 20260507055033 | 10 | 0.0 | 0.0 | 0.00 | 0.36 | 0.00 | 79 | 1015.0 | |
| 20260507054100 | 10 | 0.0 | 0.0 | 0.00 | 0.36 | 0.00 | 80 | 1014.9 | |
| 20260507053020 | 9 | 0.0 | 0.0 | 0.00 | 0.36 | 0.00 | 81 | 1014.7 | |
| 20260507052044 | 8 | 0.0 | 0.0 | 0.00 | 0.36 | 0.00 | 83 | 1014.6 | |
| 20260507051020 | 8 | 0.0 | 0.0 | 0.00 | 0.36 | 0.00 | 83 | 1014.4 | |
| 20260507050042 | 8 | 0.0 | 0.0 | 0.00 | 0.36 | 0.00 | 85 | 1014.3 | |
| 20260507045108 | 7 | 0.0 | 0.0 | 0.00 | 0.36 | 0.00 | 88 | 1014.3 | |
| 20260507044026 | 7 | 0.0 | 0.0 | 0.00 | 0.36 | 0.00 | 89 | 1014.3 | |
| 20260507043049 | 7 | 0.0 | 0.0 | 0.00 | 0.36 | 0.00 | 88 | 1014.2 | |
| 20260507042115 | 7 | 0.0 | 0.0 | 0.00 | 0.36 | 0.00 | 88 | 1014.0 | |
| 20260507041034 | 7 | 0.0 | 0.0 | 0.00 | 0.36 | 0.00 | 88 | 1014.0 | |
| 20260507040100 | 7 | 0.0 | 0.0 | 0.00 | 0.36 | 0.00 | 88 | 1014.0 | |
| 20260507035034 | 7 | 0.0 | 0.0 | 0.00 | 0.36 | 0.00 | 89 | 1014.0 | |
| 20260507034101 | 6 | 0.0 | 0.0 | 0.00 | 0.36 | 0.00 | 90 | 1013.9 | |
| 20260507033021 | 6 | 0.0 | 0.0 | 0.00 | 0.36 | 0.00 | 89 | 1013.9 | |
| 20260507032035 | 7 | 0.0 | 0.0 | 0.00 | 0.36 | 0.00 | 89 | 1013.8 | |
| 20260507031108 | 7 | 0.0 | 0.0 | 0.00 | 0.36 | 0.00 | 88 | 1013.6 | |
| 20260507030035 | 7 | 0.0 | 0.0 | 0.00 | 0.36 | 0.00 | 88 | 1013.6 | |
| 20260507025109 | 7 | 0.0 | 0.0 | 0.00 | 0.36 | 0.00 | 88 | 1013.6 | |
| 20260507024029 | 7 | 0.0 | 0.0 | 0.00 | 0.36 | 0.00 | 88 | 1013.5 | |
| 20260507023049 | 7 | 0.0 | 0.0 | 0.00 | 0.36 | 0.00 | 87 | 1013.4 | |
| 20260507022117 | 7 | 0.0 | 0.0 | 0.00 | 0.36 | 0.00 | 87 | 1013.4 | |
| 20260507021037 | 7 | 0.0 | 0.0 | 0.00 | 0.36 | 0.00 | 86 | 1013.4 | |
| 20260507020100 | 7 | 0.0 | 0.0 | 0.00 | 0.36 | 0.00 | 86 | 1013.4 | |
| 20260507015034 | 7 | 0.0 | 0.0 | 0.00 | 0.36 | 0.00 | 86 | 1013.4 | |
| 20260507014101 | 7 | 0.0 | 0.0 | 0.00 | 0.36 | 0.00 | 86 | 1013.5 | |
| 20260507013021 | 8 | 0.0 | 0.0 | 0.00 | 0.36 | 0.00 | 86 | 1013.3 | |
| 20260507012037 | 8 | 0.0 | 0.0 | 0.00 | 0.36 | 0.00 | 85 | 1013.3 | |
| 20260507011108 | 8 | 0.0 | 0.0 | 0.00 | 0.36 | 0.00 | 85 | 1013.1 | |
| 20260507010025 | 8 | 0.0 | 0.0 | 0.00 | 0.36 | 0.00 | 85 | 1013.2 | |
| 20260507005049 | 8 | 0.0 | 0.0 | 0.00 | 0.36 | 0.00 | 84 | 1013.2 | |
| 20260507004117 | 8 | 0.0 | 0.0 | 0.00 | 0.36 | 0.00 | 84 | 1013.0 | |
| 20260507003034 | 8 | 0.0 | 0.0 | 0.00 | 0.36 | 0.00 | 84 | 1013.0 | |
| 20260507002036 | 8 | 0.0 | 0.0 | 0.00 | 0.36 | 0.00 | 83 | 1013.0 | |
| 20260507001108 | 9 | 0.0 | 0.0 | 0.00 | 0.36 | 0.00 | 82 | 1013.2 | |
| 20260507000026 | 9 | 0.0 | 0.0 | 0.00 | 0.36 | 0.00 | 81 | 1013.2 | |
| 20260506235049 | 10 | 0.0 | 0.0 | 0.00 | 0.36 | 0.00 | 80 | 1013.1 | |
| 20260506234117 | 10 | 0.0 | 0.0 | 0.00 | 0.36 | 0.00 | 80 | 1013.1 | |
| 20260506233034 | 10 | 0.0 | 0.0 | 0.00 | 0.36 | 0.00 | 81 | 1013.1 | |
| 20260506232036 | 10 | 0.0 | 0.0 | 0.00 | 0.36 | 0.00 | 81 | 1013.1 | |
| 20260506231108 | 10 | 0.0 | 0.0 | 0.00 | 0.36 | 0.00 | 81 | 1013.1 | |
| 20260506230028 | 10 | 0.0 | 0.0 | 0.00 | 0.36 | 0.00 | 81 | 1013.0 | |
| 20260506225050 | 10 | 0.0 | 0.0 | 0.00 | 0.36 | 0.00 | 82 | 1013.0 | |
| 20260506224118 | 10 | 0.0 | 0.0 | 0.00 | 0.36 | 0.00 | 82 | 1012.9 | |
| 20260506223034 | 10 | 0.0 | 0.0 | 0.00 | 0.36 | 0.00 | 82 | 1012.9 | |
| 20260506222101 | 10 | 0.0 | 0.0 | 0.00 | 0.36 | 0.00 | 82 | 1012.9 | |
| 20260506221021 | 10 | 0.0 | 0.0 | 0.00 | 0.36 | 0.00 | 81 | 1012.8 | |
| 20260506220045 | 10 | 0.0 | 0.0 | 0.00 | 0.36 | 0.00 | 81 | 1012.8 | |
| 20260506215108 | 10 | 0.0 | 0.0 | 0.00 | 0.36 | 0.36 | 81 | 1012.7 | |
| 20260506214029 | 10 | 0.0 | 0.0 | 0.00 | 0.36 | 0.36 | 81 | 1012.5 | |
| 20260506213052 | 10 | 0.0 | 0.0 | 0.00 | 0.36 | 0.36 | 81 | 1012.6 | |
| 20260506212116 | 10 | 0.0 | 0.0 | 0.00 | 0.36 | 0.36 | 81 | 1012.5 | |
| 20260506211036 | 10 | 0.0 | 0.0 | 0.00 | 0.36 | 0.36 | 80 | 1012.4 | |
| 20260506205022 | 10 | 0.0 | 0.0 | 0.00 | 0.36 | 0.36 | 81 | 1012.2 | |
| 20260506204044 | 10 | 0.0 | 0.0 | 0.00 | 0.36 | 0.36 | 81 | 1012.1 | |
| 20260506203034 | 10 | 0.0 | 0.0 | 0.00 | 0.36 | 0.36 | 81 | 1012.1 | |
| 20260506202100 | 10 | 0.0 | 0.0 | 0.00 | 0.36 | 0.36 | 81 | 1012.1 | |
| 20260506201033 | 11 | 0.0 | 0.0 | 0.00 | 0.36 | 0.36 | 80 | 1011.9 | |
| 20260506195021 | 11 | 0.0 | 0.0 | 0.00 | 0.36 | 0.36 | 82 | 1011.6 | |
| 20260506194045 | 11 | 0.0 | 0.0 | 0.00 | 0.36 | 0.36 | 81 | 1011.3 | |
| 20260506193109 | 11 | 0.0 | 0.0 | 0.00 | 0.36 | 0.36 | 81 | 1011.2 | |
| 20260506192041 | 11 | 0.0 | 0.0 | 0.00 | 0.36 | 0.36 | 82 | 1010.9 | |
| 20260506191021 | 11 | 0.0 | 0.0 | 0.00 | 0.36 | 0.36 | 83 | 1010.7 | |
| 20260506190044 | 11 | 0.0 | 0.0 | 0.00 | 0.36 | 0.36 | 83 | 1010.5 | |
| 20260506185033 | 11 | 0.0 | 0.0 | 0.00 | 0.36 | 0.36 | 84 | 1010.1 | |
| 20260506184101 | 11 | 36 | 0.0 | 1.6 | 0.00 | 0.36 | 0.36 | 84 | 1010.1 |
| 20260506183021 | 11 | 30 | 0.0 | 1.6 | 0.00 | 0.36 | 0.36 | 85 | 1010.1 |
| 20260506182044 | 11 | 0.0 | 0.0 | 0.00 | 0.36 | 0.36 | 85 | 1010.0 | |
| 20260506181034 | 11 | 0.0 | 0.0 | 0.00 | 0.36 | 0.36 | 85 | 1009.9 | |
| 20260506175020 | 12 | 26 | 0.0 | 1.6 | 0.00 | 0.36 | 0.36 | 86 | 1009.5 |
| 20260506174045 | 13 | 0.0 | 0.0 | 0.00 | 0.36 | 0.36 | 90 | 1009.1 | |
| 20260506173110 | 13 | 0.0 | 0.0 | 0.00 | 0.36 | 0.36 | 90 | 1008.7 | |
| 20260506172029 | 12 | 0.0 | 0.0 | 0.00 | 0.36 | 0.36 | 90 | 1008.5 | |
| 20260506171053 | 12 | 0.0 | 0.0 | 0.03 | 0.36 | 0.36 | 89 | 1008.2 | |
| 20260506170117 | 12 | 0.0 | 0.0 | 0.10 | 0.36 | 0.36 | 89 | 1007.8 | |
| 20260506165034 | 12 | 0.0 | 0.0 | 0.20 | 0.36 | 0.36 | 89 | 1007.6 | |
| 20260506164101 | 12 | 0.0 | 0.0 | 0.28 | 0.43 | 0.36 | 89 | 1007.9 | |
| 20260506163038 | 12 | 0.0 | 0.0 | 0.30 | 0.56 | 0.36 | 89 | 1007.3 | |
| 20260506162118 | 12 | 0.0 | 0.0 | 0.33 | 0.61 | 0.36 | 90 | 1007.5 | |
| 20260506161037 | 12 | 0.0 | 0.0 | 0.33 | 0.64 | 0.33 | 88 | 1008.5 | |
| 20260506155038 | 11 | 0.0 | 0.0 | 0.15 | 0.46 | 0.15 | 87 | 1009.0 | |
| 20260506154117 | 11 | 0.0 | 0.0 | 0.08 | 0.38 | 0.08 | 85 | 1009.1 | |
| 20260506153037 | 12 | 38 | 0.0 | 1.6 | 0.05 | 0.36 | 0.05 | 81 | 1009.0 |
| 20260506152101 | 13 | 31 | 0.0 | 1.6 | 0.03 | 0.33 | 0.03 | 74 | 1008.6 |
| 20260506151042 | 17 | 333 | 0.0 | 3.2 | 0.00 | 0.30 | 0.00 | 65 | 1007.8 |
| 20260506150030 | 18 | 0.0 | 0.0 | 0.00 | 0.30 | 0.00 | 58 | 1007.1 | |
| 20260506145053 | 19 | 0.0 | 0.0 | 0.00 | 0.30 | 0.00 | 56 | 1006.8 | |
| 20260506144036 | 20 | 0.0 | 0.0 | 0.00 | 0.30 | 0.00 | 54 | 1006.4 | |
| 20260506143109 | 20 | 0.0 | 0.0 | 0.00 | 0.30 | 0.00 | 52 | 1006.4 | |
| 20260506142029 | 20 | 0.0 | 0.0 | 0.00 | 0.30 | 0.00 | 52 | 1006.6 | |
| 20260506141053 | 20 | 44 | 0.0 | 1.6 | 0.00 | 0.30 | 0.00 | 52 | 1006.7 |
| 20260506140036 | 20 | 0.0 | 0.0 | 0.00 | 0.30 | 0.00 | 52 | 1006.9 | |
| 20260506135109 | 20 | 50 | 0.0 | 1.6 | 0.00 | 0.30 | 0.00 | 51 | 1006.9 |
| 20260506134029 | 20 | 0.0 | 0.0 | 0.00 | 0.30 | 0.00 | 52 | 1006.9 | |
| 20260506133053 | 20 | 0.0 | 0.0 | 0.00 | 0.30 | 0.00 | 52 | 1007.0 | |
| 20260506132029 | 20 | 37 | 0.0 | 1.6 | 0.00 | 0.30 | 0.00 | 50 | 1007.2 |
| 20260506131054 | 20 | 26 | 0.0 | 1.6 | 0.00 | 0.30 | 0.00 | 52 | 1007.3 |
| 20260506130117 | 20 | 30 | 0.0 | 1.6 | 0.00 | 0.30 | 0.00 | 50 | 1007.5 |
| 20260506125043 | 21 | 60 | 0.0 | 1.6 | 0.00 | 0.30 | 0.00 | 52 | 1007.4 |
| 20260506124029 | 20 | 47 | 0.0 | 1.6 | 0.00 | 0.30 | 0.00 | 53 | 1007.6 |
| 20260506123053 | 20 | 13 | 0.0 | 1.6 | 0.00 | 0.30 | 0.00 | 53 | 1007.7 |
| 20260506122036 | 20 | 0.0 | 0.0 | 0.00 | 0.30 | 0.00 | 53 | 1007.9 | |
| 20260506121110 | 20 | 28 | 0.0 | 1.6 | 0.00 | 0.30 | 0.00 | 54 | 1007.9 |
| 20260506120030 | 21 | 0.0 | 0.0 | 0.00 | 0.30 | 0.00 | 53 | 1008.0 | |
| 20260506115044 | 20 | 0.0 | 0.0 | 0.00 | 0.30 | 0.00 | 55 | 1007.9 | |
| 20260506114117 | 19 | 0.0 | 0.0 | 0.00 | 0.30 | 0.00 | 55 | 1007.6 | |
| 20260506113039 | 19 | 56 | 0.0 | 1.6 | 0.00 | 0.30 | 0.00 | 55 | 1008.2 |
| 20260506112117 | 19 | 0.0 | 0.0 | 0.00 | 0.30 | 0.00 | 56 | 1008.6 | |
| 20260506111039 | 19 | 50 | 0.0 | 1.6 | 0.00 | 0.30 | 0.00 | 55 | 1008.9 |
| 20260506110117 | 20 | 48 | 0.0 | 1.6 | 0.00 | 0.30 | 0.00 | 55 | 1008.9 |
| 20260506105035 | 20 | 50 | 0.0 | 3.2 | 0.00 | 0.30 | 0.00 | 54 | 1009.0 |